Latest Weather Observations for Gatton

IDQ60801

Issued at 4:02 pm EST Thursday 29 January 2015 (issued every 30 minutes, with the page automatically refreshed every 10 minutes)

About weather observations | Map of weather stations | Latest weather observations for QLD | Other Formats
Station Details ID: 040082 Name: UNIVERSITY OF QUEENSLAND GATTON Lat: -27.54 Lon: 152.34 Height: 89.0 m
Data from the previous 72 hours. | See also: Recent months at Gatton
Date/Time
EST
Temp
°C
App
Temp
°C
Dew
Point
Rel
Hum
%
Delta-T
°C
Wind Press
QNH
hPa
Press
MSL
hPa
Rain
since 9 am
mm
Dir
 
Spd
km/h
Gust
km/h
Spd
kts
Gust
kts
29/04:00pm 29.0 29.8 18.1 51 7.0 NE 11 17 6 9 - - 0.0
29/03:30pm 27.9 28.4 15.5 46 7.6 SSE 7 15 4 8 - - 0.0
29/03:00pm 27.9 28.0 16.5 50 7.1 ENE 11 17 6 9 - - 0.0
29/02:30pm 28.9 28.7 16.8 48 7.6 E 13 22 7 12 - - 0.0
29/02:00pm 28.3 29.1 17.2 51 7.0 ENE 9 15 5 8 - - 0.0
29/01:30pm 28.2 28.3 15.5 46 7.8 NNW 9 17 5 9 - - 0.0
29/01:00pm 28.2 28.5 17.1 51 7.0 NNE 11 19 6 10 - - 0.0
29/12:30pm 27.7 29.2 18.1 56 6.1 SE 7 17 4 9 - - 0.0
29/12:00pm 27.1 28.3 15.8 50 6.9 NE 4 11 2 6 - - 0.0
29/11:30am 26.6 26.7 15.6 50 6.7 N 9 17 5 9 - - 0.0
29/11:00am 26.3 27.1 17.4 58 5.6 ENE 9 15 5 8 - - 0.0
29/10:30am 25.7 25.9 15.7 54 6.1 E 9 13 5 7 - - 0.0
29/10:00am 25.6 26.0 16.4 56 5.7 ESE 9 17 5 9 - - 0.0
29/09:30am 24.8 25.1 15.1 54 5.8 SSE 7 17 4 9 - - 0.0
29/09:00am 23.9 23.9 14.3 55 5.7 ESE 7 15 4 8 - - 0.0
29/08:30am 23.4 23.4 14.1 56 5.5 ESE 7 13 4 7 - - 0.0
29/08:00am 22.1 23.0 15.2 65 4.1 WSW 4 9 2 5 - - 0.0
29/07:30am 20.9 21.5 15.7 72 3.1 WSW 7 9 4 5 - - 0.0
29/07:00am 20.2 21.3 17.2 83 1.8 W 7 9 4 5 - - 0.0
29/06:30am 19.0 19.7 17.0 88 1.2 W 9 11 5 6 - - 0.0
29/06:00am 17.9 18.8 16.2 90 1.0 WNW 6 7 3 4 - - 0.0
29/05:30am 17.7 19.4 15.1 85 1.5 CALM 0 0 0 0 - - 0.0
29/05:00am 18.2 19.6 15.5 84 1.6 SSW 2 6 1 3 - - 0.0
29/04:30am 18.5 20.3 15.4 82 1.8 CALM 0 0 0 0 - - 0.0
29/04:00am 18.8 20.8 16.0 84 1.7 CALM 0 0 0 0 - - 0.0
29/03:30am 19.6 21.5 15.7 78 2.3 CALM 0 6 0 3 - - 0.0
29/03:00am 19.9 20.6 15.5 76 2.6 S 6 9 3 5 - - 0.0
29/02:30am 20.0 22.1 16.2 79 2.3 CALM 0 7 0 4 - - 0.0
29/02:00am 19.9 22.5 17.5 86 1.5 CALM 0 0 0 0 - - 0.0
29/01:30am 20.2 22.8 17.6 85 1.6 CALM 0 0 0 0 - - 0.0
29/01:00am 20.5 23.2 17.7 84 1.7 CALM 0 0 0 0 - - 0.0
29/12:30am 20.1 22.6 17.3 84 1.7 CALM 0 0 0 0 - - 0.0
29/12:00am 20.1 22.1 16.1 78 2.4 CALM 0 0 0 0 - - 0.0
 
Date/Time
EST
Temp
°C
App
Temp
°C
Dew
Point
Rel
Hum
%
Delta-T
°C
Wind Press
QNH
hPa
Press
MSL
hPa
Rain
since 9 am
mm
Dir
 
Spd
km/h
Gust
km/h
Spd
kts
Gust
kts
28/11:30pm 20.9 22.6 16.1 74 2.9 S 2 6 1 3 - - 0.0
28/11:00pm 20.8 21.5 16.2 75 2.8 S 7 9 4 5 - - 0.0
28/10:30pm 21.1 22.5 16.3 74 2.9 S 4 7 2 4 - - 0.0
28/10:00pm 21.2 21.9 16.2 73 3.0 S 7 13 4 7 - - 0.0
28/09:30pm 21.4 21.7 16.1 72 3.2 S 9 13 5 7 - - 0.0
28/09:00pm 21.2 21.9 16.2 73 3.0 SSE 7 11 4 6 - - 0.0
28/08:30pm 21.3 21.7 16.3 73 3.0 SSE 9 17 5 9 - - 0.0
28/08:00pm 21.3 21.6 16.0 72 3.2 SE 9 13 5 7 - - 0.0
28/07:30pm 21.8 20.2 15.9 69 3.6 SSE 19 30 10 16 - - 0.0
28/07:00pm 22.0 21.5 16.9 73 3.1 SSE 15 24 8 13 - - 0.0
28/06:30pm 22.1 22.0 17.0 73 3.1 SSE 13 22 7 12 - - 0.0
28/06:00pm 22.4 22.8 17.3 73 3.2 SE 11 15 6 8 - - 0.0
28/05:30pm 22.4 23.3 17.5 74 3.0 S 9 13 5 7 - - 0.0
28/05:00pm 22.4 21.7 17.3 73 3.2 SSE 17 20 9 11 - - 0.0
28/04:30pm 22.7 21.6 17.4 72 3.3 SSE 19 24 10 13 - - 0.0
28/04:00pm 23.2 21.8 17.0 68 3.8 SSE 20 28 11 15 - - 0.0
28/03:30pm 23.5 21.7 17.0 67 4.0 SSE 22 32 12 17 - - 0.0
28/03:00pm 24.4 22.8 17.4 65 4.4 SE 22 32 12 17 - - 0.0
28/02:30pm 24.8 23.9 17.8 65 4.4 SSE 19 26 10 14 - - 0.0
28/02:00pm 24.9 24.1 17.9 65 4.4 SE 19 24 10 13 - - 0.0
28/01:30pm 25.6 24.7 18.3 64 4.6 ESE 20 24 11 13 - - 0.0
28/01:00pm 25.5 25.2 18.2 64 4.6 SSE 17 20 9 11 - - 0.0
28/12:30pm 24.8 25.9 18.0 66 4.3 E 9 15 5 8 - - 0.0
28/12:00pm 24.8 25.4 18.7 69 3.9 SE 13 19 7 10 - - 0.0
28/11:30am 23.8 24.1 17.8 69 3.8 SSE 13 20 7 11 - - 0.0
28/11:00am 22.7 23.7 17.8 74 3.1 ESE 9 11 5 6 - - 0.0
28/10:30am 22.3 23.0 17.9 76 2.7 SE 11 19 6 10 - - 0.0
28/10:00am 21.9 22.8 17.5 76 2.7 E 9 15 5 8 - - 0.0
28/09:30am 21.5 22.9 17.9 80 2.2 E 7 15 4 8 - - 0.0
28/09:00am 20.5 21.8 17.5 83 1.8 E 7 9 4 5 - - 0.0
28/08:30am 20.4 22.5 18.0 86 1.5 ESE 4 13 2 7 - - 0.0
28/08:00am 19.5 20.0 17.5 88 1.2 SSE 11 17 6 9 - - 0.0
28/07:30am 19.2 21.0 17.3 89 1.2 ESE 4 7 2 4 - - 0.0
28/07:00am 19.0 19.8 17.3 90 1.0 NE 9 11 5 6 - - 0.0
28/06:30am 19.0 20.7 17.1 89 1.2 ENE 4 7 2 4 - - 0.0
28/06:00am 18.9 20.0 17.2 90 1.0 NNE 7 7 4 4 - - 0.0
28/05:30am 19.1 20.4 17.1 88 1.2 NE 6 7 3 4 - - 0.0
28/05:00am 19.2 20.1 16.6 85 1.6 ESE 7 9 4 5 - - 0.0
28/04:30am 19.7 21.4 17.1 85 1.6 SE 4 7 2 4 - - 0.0
28/04:00am 19.6 22.0 17.0 85 1.6 CALM 0 6 0 3 - - 0.0
28/03:30am 19.6 20.9 17.0 85 1.6 ESE 6 9 3 5 - - 0.0
28/03:00am 19.6 20.2 16.8 84 1.7 SE 9 13 5 7 - - 0.0
28/02:30am 19.6 19.5 17.0 85 1.6 SSE 13 20 7 11 - - 0.0
28/02:00am 19.7 20.2 17.5 87 1.4 SE 11 19 6 10 - - 0.0
28/01:30am 19.7 20.3 17.7 88 1.2 SSE 11 19 6 10 - - 0.0
28/01:00am 19.7 18.9 18.0 90 1.1 SE 19 28 10 15 - - 0.0
28/12:30am 19.5 18.8 18.2 92 0.8 SE 19 28 10 15 - - 0.0
28/12:00am 19.5 18.5 18.0 91 0.9 SE 20 35 11 19 - - 0.0
 
Date/Time
EST
Temp
°C
App
Temp
°C
Dew
Point
Rel
Hum
%
Delta-T
°C
Wind Press
QNH
hPa
Press
MSL
hPa
Rain
since 9 am
mm
Dir
 
Spd
km/h
Gust
km/h
Spd
kts
Gust
kts
27/11:30pm 22.0 23.9 20.6 92 0.9 E 11 15 6 8 - - 0.0
27/11:00pm 22.2 25.1 20.7 91 1.0 E 6 7 3 4 - - 0.0
27/10:30pm 22.4 25.3 20.7 90 1.1 ENE 6 7 3 4 - - 0.0
27/10:00pm 22.5 25.3 20.8 90 1.1 NE 7 9 4 5 - - 0.0
27/09:30pm 22.5 24.8 20.6 89 1.2 E 9 13 5 7 - - 0.0
27/09:00pm 22.7 24.9 20.4 87 1.5 ESE 9 11 5 6 - - 0.0
27/08:30pm 22.9 24.6 20.1 84 1.8 ENE 11 17 6 9 - - 0.0
27/08:00pm 23.6 24.8 19.9 80 2.4 E 13 20 7 11 - - 0.0
27/07:30pm 23.4 24.0 19.5 79 2.5 E 15 24 8 13 - - 0.0
27/07:00pm 24.3 23.3 18.9 72 3.4 E 22 30 12 16 - - 0.0
27/06:30pm 25.5 24.8 18.7 66 4.3 E 20 30 11 16 - - 0.0
27/06:00pm 26.0 25.2 19.2 66 4.4 E 22 32 12 17 - - 0.0
27/05:30pm 26.4 25.5 19.8 67 4.3 E 24 35 13 19 - - 0.0
27/05:00pm 27.0 25.7 19.9 65 4.6 E 26 35 14 19 - - 0.0
27/04:30pm 28.2 26.8 19.7 60 5.6 ENE 26 33 14 18 - - 0.0
27/04:00pm 29.4 28.0 19.7 56 6.4 ENE 26 37 14 20 - - 0.0
27/03:30pm 29.7 28.7 20.5 57 6.1 E 26 35 14 19 - - 0.0
27/03:00pm 30.0 30.2 21.4 60 5.8 E 22 28 12 15 - - 0.0
27/02:30pm 29.4 28.9 19.1 54 6.7 ENE 20 30 11 16 - - 0.0
27/02:00pm 29.1 28.5 19.7 57 6.2 E 22 33 12 18 - - 0.0
27/01:30pm 29.6 30.2 21.3 61 5.6 ESE 20 28 11 15 - - 0.0
27/01:00pm 29.7 29.1 20.5 57 6.1 ENE 24 35 13 19 - - 0.0
27/12:30pm 30.3 30.8 21.1 58 6.2 E 20 28 11 15 - - 0.0
27/12:00pm 30.0 31.7 22.4 63 5.2 E 17 24 9 13 - - 0.0
27/11:30am 29.3 29.3 19.0 53 6.7 E 17 26 9 14 - - 0.0
27/11:00am 29.1 30.5 21.1 62 5.3 E 15 20 8 11 - - 0.0
27/10:30am 28.6 29.5 20.1 60 5.6 E 15 26 8 14 - - 0.0
27/10:00am 28.3 28.4 20.3 62 5.3 ESE 20 26 11 14 - - 0.0
27/09:30am 27.9 28.5 21.0 66 4.6 E 19 28 10 15 - - 0.0
27/09:00am 28.1 29.2 21.9 69 4.2 ESE 19 24 10 13 - - 0.0
27/08:30am 27.2 28.4 22.2 74 3.4 E 19 24 10 13 - - 0.0
27/08:00am 26.0 26.6 21.0 74 3.3 E 19 26 10 14 - - 0.0
27/07:30am 26.4 27.3 21.6 75 3.2 E 19 26 10 14 - - 0.0
27/07:00am 25.7 26.6 21.6 78 2.7 E 19 24 10 13 - - 0.0
27/06:30am 24.8 27.6 21.5 82 2.2 ESE 9 15 5 8 - - 0.0
27/06:00am 23.6 25.9 21.3 87 1.5 E 11 15 6 8 - - 0.0
27/05:30am 23.0 25.2 21.1 89 1.2 E 11 15 6 8 - - 0.0
27/05:00am 22.9 25.0 21.0 89 1.2 E 11 17 6 9 - - 0.0
27/04:30am 23.1 26.1 21.2 89 1.2 E 7 9 4 5 - - 0.0
27/04:00am 23.2 26.1 21.1 88 1.4 E 7 15 4 8 - - 0.0
27/03:30am 23.2 25.7 21.1 88 1.4 ESE 9 13 5 7 - - 0.0
27/03:00am 23.2 26.3 21.1 88 1.4 SE 6 9 3 5 - - 0.0
27/02:30am 23.0 26.7 20.7 87 1.5 SE 2 7 1 4 - - 0.0
27/02:00am 23.3 25.7 20.8 86 1.6 SSE 9 11 5 6 - - 0.0
27/01:30am 23.5 26.6 21.0 86 1.6 SSE 6 7 3 4 - - 0.0
27/01:00am 23.8 26.8 21.3 86 1.7 SE 7 9 4 5 - - 0.0
27/12:30am 23.9 26.5 21.2 85 1.8 SSE 9 11 5 6 - - 0.0
27/12:00am 23.9 26.6 21.4 86 1.7 SSE 9 11 5 6 - - 0.0
 
Date/Time
EST
Temp
°C
App
Temp
°C
Dew
Point
Rel
Hum
%
Delta-T
°C
Wind Press
QNH
hPa
Press
MSL
hPa
Rain
since 9 am
mm
Dir
 
Spd
km/h
Gust
km/h
Spd
kts
Gust
kts
26/11:30pm 23.8 26.3 21.1 85 1.8 ESE 9 11 5 6 - - 0.0
26/11:00pm 24.1 27.1 20.8 82 2.2 SSE 6 7 3 4 - - 0.0
26/10:30pm 24.1 27.1 21.2 84 1.9 SSE 7 9 4 5 - - 0.0
26/10:00pm 24.0 28.0 21.3 85 1.8 WSW 2 6 1 3 - - 0.0
26/09:30pm 24.0 28.6 21.7 87 1.5 CALM 0 0 0 0 - - 0.0
26/09:00pm 24.1 27.2 21.0 83 2.0 S 6 9 3 5 - - 0.0
26/08:30pm 23.9 26.0 21.0 84 1.9 ESE 11 15 6 8 - - 0.0
26/08:00pm 24.1 25.5 20.4 80 2.4 ESE 13 17 7 9 - - 0.0
26/07:30pm 24.1 25.8 20.2 79 2.5 SE 11 17 6 9 - - 0.0
26/07:00pm 24.5 27.0 21.0 81 2.3 ESE 9 11 5 6 - - 0.0
26/06:30pm 25.2 27.1 19.8 72 3.5 SE 9 13 5 7 - - 0.0
26/06:00pm 25.5 25.9 19.9 71 3.6 SSE 17 22 9 12 - - 0.0
26/05:30pm 26.3 26.5 20.2 69 4.0 SSE 19 24 10 13 - - 0.0
26/05:00pm 29.3 29.1 21.3 62 5.4 ESE 24 41 13 22 - - 0.0
26/04:30pm 29.5 30.5 22.2 65 5.0 ENE 20 30 11 16 - - 0.0

Other Formats:

Comma delimited format used in spreadsheet applications
http://www.bom.gov.au/fwo/IDQ60801/IDQ60801.94562.axf

JavaScript Object Notation format (JSON) in row-major order
http://www.bom.gov.au/fwo/IDQ60801/IDQ60801.94562.json